| time (UTC) | temp F | wind direction | speed MPH | gust MPH | rain 1hr in | rain 24hr in | rain mn in | humidity % | barometer mb |
| 20260505041602 | 74 | 167 | 2.0 | 5.0 | 0.00 | 0.00 | 0.00 | 55 | 809.3 |
| 20260505034502 | 75 | 207 | 2.0 | 5.0 | 0.00 | 0.00 | 0.00 | 54 | 809.3 |
| 20260505033004 | 75 | 175 | 2.0 | 7.0 | 0.00 | 0.00 | 0.00 | 53 | 809.3 |
| 20260505031509 | 75 | 175 | 2.0 | 8.0 | 0.00 | 0.00 | 0.00 | 53 | 809.3 |
| 20260505030008 | 75 | 171 | 2.0 | 7.0 | 0.00 | 0.00 | 0.00 | 53 | 809.3 |
| 20260505024515 | 75 | 214 | 2.0 | 6.0 | 0.00 | 0.00 | 0.00 | 53 | 809.3 |
| 20260505023022 | 76 | 175 | 2.0 | 7.0 | 0.00 | 0.00 | 0.00 | 52 | 809.3 |
| 20260505021529 | 76 | 172 | 2.0 | 5.0 | 0.00 | 0.00 | 0.00 | 52 | 809.3 |
| 20260505020026 | 76 | 226 | 1.0 | 6.0 | 0.00 | 0.00 | 0.00 | 52 | 809.3 |
| 20260505014528 | 76 | 198 | 1.0 | 5.0 | 0.00 | 0.00 | 0.00 | 51 | 809.3 |
| 20260505013036 | 76 | 190 | 2.0 | 7.0 | 0.00 | 0.00 | 0.00 | 51 | 809.3 |
| 20260505011532 | 76 | 181 | 1.0 | 6.0 | 0.00 | 0.00 | 0.00 | 50 | 809.3 |
| 20260505010035 | 77 | 237 | 3.0 | 7.0 | 0.00 | 0.00 | 0.00 | 49 | 809.3 |
| 20260505004540 | 78 | 212 | 2.0 | 5.0 | 0.00 | 0.00 | 0.00 | 49 | 809.3 |
| 20260505003047 | 78 | 195 | 3.0 | 10.0 | 0.00 | 0.00 | 0.00 | 48 | 809.3 |
| 20260505001552 | 79 | 160 | 2.0 | 6.0 | 0.00 | 0.00 | 0.00 | 48 | 809.3 |
| 20260505000058 | 79 | 199 | 2.0 | 5.0 | 0.00 | 0.00 | 0.00 | 47 | 809.3 |
| 20260504234552 | 79 | 182 | 3.0 | 8.0 | 0.00 | 0.00 | 0.00 | 47 | 809.3 |
| 20260504233106 | 80 | 190 | 3.0 | 8.0 | 0.00 | 0.00 | 0.00 | 46 | 809.3 |
| 20260504231558 | 80 | 173 | 2.0 | 7.0 | 0.00 | 0.00 | 0.00 | 45 | 809.3 |
| 20260504230106 | 81 | 221 | 2.0 | 7.0 | 0.00 | 0.00 | 0.00 | 44 | 809.3 |
| 20260504224502 | 82 | 243 | 3.0 | 8.0 | 0.00 | 0.00 | 0.00 | 43 | 809.3 |
| 20260504223009 | 82 | 199 | 3.0 | 9.0 | 0.00 | 0.00 | 0.00 | 43 | 809.3 |
| 20260504221516 | 82 | 232 | 3.0 | 9.0 | 0.00 | 0.00 | 0.00 | 43 | 809.3 |
| 20260504220031 | 82 | 187 | 2.0 | 11.0 | 0.00 | 0.00 | 0.00 | 42 | 809.3 |
| 20260504214525 | 82 | 220 | 2.0 | 6.0 | 0.00 | 0.00 | 0.00 | 43 | 809.3 |
| 20260504213027 | 83 | 219 | 3.0 | 8.0 | 0.00 | 0.00 | 0.00 | 41 | 809.3 |
| 20260504211535 | 83 | 237 | 4.0 | 17.0 | 0.00 | 0.00 | 0.00 | 40 | 809.3 |
| 20260504210032 | 83 | 220 | 3.0 | 15.0 | 0.00 | 0.00 | 0.00 | 41 | 809.3 |
| 20260504204531 | 82 | 189 | 3.0 | 10.0 | 0.00 | 0.00 | 0.00 | 41 | 809.3 |
| 20260504203029 | 82 | 185 | 4.0 | 12.0 | 0.00 | 0.00 | 0.00 | 42 | 809.3 |
| 20260504201534 | 82 | 200 | 3.0 | 7.0 | 0.00 | 0.00 | 0.00 | 41 | 809.3 |
| 20260504200034 | 82 | 227 | 3.0 | 10.0 | 0.00 | 0.00 | 0.00 | 42 | 809.3 |
| 20260504194534 | 82 | 165 | 3.0 | 11.0 | 0.00 | 0.00 | 0.00 | 41 | 809.3 |
| 20260504193037 | 81 | 184 | 3.0 | 8.0 | 0.00 | 0.00 | 0.00 | 42 | 809.3 |
| 20260504191529 | 81 | 230 | 2.0 | 8.0 | 0.00 | 0.00 | 0.00 | 42 | 809.3 |
| 20260504190030 | 81 | 235 | 3.0 | 8.0 | 0.00 | 0.00 | 0.00 | 42 | 809.3 |
| 20260504184534 | 80 | 234 | 4.0 | 8.0 | 0.00 | 0.00 | 0.00 | 42 | 809.3 |
| 20260504183031 | 79 | 215 | 3.0 | 8.0 | 0.00 | 0.00 | 0.00 | 44 | 809.3 |
| 20260504181536 | 78 | 211 | 3.0 | 11.0 | 0.00 | 0.00 | 0.00 | 43 | 809.3 |
| 20260504180026 | 78 | 203 | 2.0 | 9.0 | 0.00 | 0.00 | 0.00 | 43 | 809.3 |
| 20260504174527 | 77 | 234 | 2.0 | 10.0 | 0.00 | 0.00 | 0.00 | 44 | 809.3 |
| 20260504173031 | 76 | 220 | 3.0 | 10.0 | 0.00 | 0.00 | 0.00 | 45 | 809.3 |
| 20260504171532 | 75 | 169 | 3.0 | 8.0 | 0.00 | 0.00 | 0.00 | 46 | 809.3 |
| 20260504081550 | 65 | 231 | 1.0 | 4.0 | 0.00 | 0.00 | 0.00 | 48 | 809.3 |
| 20260504050007 | 68 | 225 | 1.0 | 3.0 | 0.00 | 0.00 | 0.00 | 39 | |
| 20260504044510 | 68 | 174 | 0.0 | 4.0 | 0.00 | 0.00 | 0.00 | 39 |